Showing default

QIANFAN-30, 61563

Orbit data source: Space-Track

QIANFAN-30, 61563 is a Chinese payload satellite in LEO that was launched on Tue, 15 Oct 2024 UTC via a CHANG ZHENG 6A launch vehicle from the Taiyaun Space Center, China (TSC). Payload-class satellites include a variety of spacecraft equipped with specific instruments for various scientific and technological missions. These include communications satellites like Starlink; space stations such as the ISS; scientific satellites like the Hubble; Earth observation satellites from companies like Planet Labs, Umbra, and HawkEye 360; GPS; miniature CubeSats for education and research; and military/defense satellites.

Loading next visibility...
Identifier
61563, 2024-185M
Orbit
LEO
Country
Flag of CNCN / PRC
Related business
Manufacturer
GESIH/SECM
Mission
Operational Commercial Communications
Bus & Motor
QIANFAN, Unknown motor
Mass
267 kg wet, ~267 kg dry
Launch date (UTC)
2024-10-15 (2 years ago)
Launch vehicle
CHANG ZHENG 6A
Launch site
Taiyaun Space Center, China (TSC)
Object type
Payload
Rocket body
Debris
Shape & HBR
Box + 1 Pan, 5.0 m
Radar Cross Section
13.200 m², Large (>1 m²)

Expand to show TLE details & history
Last TLE update: 14 hours ago

TLE from 14 hours ago
0 QIANFAN-30
1 61563U 24185M   26235.56223986  .00000144  00000-0  20808-3 0  9990
2 61563  88.9784  54.6946 0008574  34.9598 325.2114 13.50069516102314
Epoch: 2026-08-23T13:29Z
TLE epoch observation values (Epoch: 2026-08-23T13:29:37.523Z)
Latitude
-0.00006°
Longitude
-119.56826°
Altitude
1,069.709 km
Speed
7.32 km/s
True Right ascension
03h 38m 46s
True Declination
0° 00' 00"
Sunlit
Object was in daylight at epoch
Visualization orbit readout
Latitude
Unknown
Longitude
Unknown
Altitude
Unknown
Speed
Unknown
Apparent Right ascension
Unknown
Apparent Declination
Unknown
Sunlit
N/A
Visualization observer readout
Local Sidereal Time
18:59:33
Azimuth
Unknown
Elevation
Unknown
Doppler factor
Unknown
Orbital elements
Apogee altitude
1,075.441 km
Perigee altitude
1,062.67 km
Semi-major axis
7,447.192 km
Eccentricity
0.00086
Inclination
88.9784°
RAAN
54.6946°
Arg. of periapsis
34.9598°
True anomaly
325.15529°
Mean anomaly
325.2114°
Eccentric anomaly
325.18335°
Mean motion
3.37718 °/min
Orbital period
106.6 mins
BSTAR
0.00020808
Loading maneuver chart data...
Computing Atmospheric mass density...
Loading historical data...
Loading historical data...
Loading historical data...
Loading historical data...
Loading historical data...
Loading historical data...
Loading historical data...

Documentation

Showing up to 5 results
|